Back to catalog

THORAD AGENA D DEB

AlivePO
NORAD 18513·DEBRIS·🇺🇸 United States

Launched Apr 8, 1970 from Vandenberg Space Force Base

Loading…

Next Passes (next 24 hours)

TLE

FreshSource: Space-Track

Epoch: Sep 14, 2026, 05:42 UTC

1 18513U 70025PN  26257.23778376  .00001877  00000-0  75505-3 0  9995
2 18513  99.7208 175.2904 0046169 179.7049 335.1303 14.28940341137450

Track THORAD AGENA D DEB in real time with AllMySat

Download on the App Store